New Castle, PA

8:47 PM EDT on August 21, 2017 (GMT -0400)
New Castle Municipal

Weather History for KUCP - June, 2014

Change the Weather History Date:

Monday, June 23, 2014

  Actual Average Record
Temperature  
Mean Temperature 72 °F -  
Max Temperature 86 °F 81 °F 98 °F (1933)
Min Temperature 57 °F 55 °F 37 °F (1963)
Cooling Degree Days 6    
Growing Degree Days 22 (Base 50)    
Moisture  
Dew Point 64 °F    
Average Humidity 85    
Maximum Humidity 100    
Minimum Humidity 55    
Precipitation  
Precipitation 0.52 in - - ()
Sea Level Pressure  
Sea Level Pressure 30.02 in    
Wind  
Wind Speed 2 mph (ESE)    
Max Wind Speed 13 mph    
Max Gust Speed 22 mph    
Visibility 6 miles    
Events Fog , Rain    
Averages and records for this station are not official NWS values.
T = Trace of Precipitation, MM = Missing Value Source: NWS Daily Summary

Daily Weather History Graph

Daily Weather History Graph

Search for Another Location

Airport or City:

Trip Planner

Search our weather history database for the weather conditions in past years. The results will help you decide how hot, cold, wet, or windy it might be!

Date:

Astronomy

Jun. 23, 2014 Rise Set
Actual Time 5:50 AM EDT 8:57 PM EDT
Civil Twilight 5:16 AM EDT 9:31 PM EDT
Nautical Twilight 4:33 AM EDT 10:14 PM EDT
Astronomical Twilight 3:42 AM EDT 11:05 PM EDT
Moon 3:16 AM EDT (6/23) 5:36 PM EDT (6/23)
Length of Visible Light 16h 15m
Length of Day
15h 07m
Waning Crescent, 13% of the Moon is Illuminated
Jun 23
Waning Crescent
Jun 27
New
Jul 5
First Quarter
Jul 12
Full
Jul 18
Last Quarter

Hourly Weather History & Observations

Time (EDT) Temp. Heat Index Dew Point Humidity Pressure Visibility Wind Dir Wind Speed Gust Speed Precip Events Conditions
12:56 AM 59.0 °F - 57.9 °F 96% 30.02 in 10.0 mi Calm Calm - N/A   Clear
1:56 AM 60.8 °F - 57.2 °F 88% 29.99 in 10.0 mi Calm Calm - N/A   Clear
2:56 AM 59.0 °F - 59.0 °F 100% 30.01 in 10.0 mi Calm Calm - N/A   Clear
3:56 AM 57.9 °F - 57.9 °F 100% 30.02 in 7.0 mi Calm Calm - N/A   Clear
4:17 AM 57.2 °F - 57.2 °F 100% 29.99 in 1.8 mi Calm Calm - N/A   Clear
4:56 AM 57.2 °F - 57.2 °F 100% 29.99 in 7.0 mi Calm Calm - N/A   Clear
5:36 AM 57.2 °F - 57.2 °F 100% 30.00 in 2.0 mi Calm Calm - N/A   Clear
5:56 AM 59.0 °F - 59.0 °F 100% 30.04 in 5.0 mi Calm Calm - N/A   Clear
6:28 AM 59.0 °F - 59.0 °F 100% 30.03 in 1.8 mi Calm Calm - N/A   Clear
6:41 AM 60.8 °F - 60.8 °F 100% 30.03 in 2.0 mi Calm Calm - N/A   Clear
6:56 AM 61.9 °F - 61.9 °F 100% 30.05 in 5.0 mi Calm Calm - N/A   Clear
7:56 AM 66.2 °F - 64.4 °F 94% 30.02 in 7.0 mi Calm Calm - N/A   Clear
8:56 AM 70.9 °F - 63.9 °F 78% 30.06 in 10.0 mi Calm Calm - N/A   Clear
9:56 AM 73.9 °F - 64.9 °F 73% 30.06 in 10.0 mi Calm Calm - N/A   Clear
10:56 AM 74.8 °F - 66.9 °F 76% 30.06 in 10.0 mi Calm Calm - N/A   Partly Cloudy
11:56 AM 79.9 °F - 65.8 °F 62% 30.05 in 10.0 mi Variable 6.9 mph - N/A   Partly Cloudy
12:56 PM 81.9 °F 84.2 °F 66.9 °F 60% 30.04 in 10.0 mi South 4.6 mph - N/A   Partly Cloudy
1:56 PM 82.4 °F 85.4 °F 68.0 °F 62% 30.01 in 10.0 mi Variable 5.8 mph - N/A   Scattered Clouds
2:56 PM 84.9 °F 88.8 °F 68.9 °F 59% 30.03 in 10.0 mi Variable 4.6 mph - N/A   Scattered Clouds
3:56 PM 84.9 °F 88.8 °F 68.9 °F 59% 30.01 in 10.0 mi Variable 5.8 mph - N/A   Scattered Clouds
4:56 PM 84.2 °F 87.3 °F 68.0 °F 58% 29.96 in 10.0 mi SSW 4.6 mph - N/A   Clear
5:56 PM 86.9 °F 91.0 °F 68.9 °F 55% 29.99 in 10.0 mi Variable 3.5 mph - N/A   Partly Cloudy
6:56 PM 82.9 °F 85.8 °F 68.0 °F 60% 29.98 in 10.0 mi Calm Calm - N/A   Partly Cloudy
7:56 PM 69.8 °F - 66.2 °F 88% 29.98 in 5.0 mi Calm Calm - N/A Rain Light Rain
8:56 PM 68.9 °F - 66.9 °F 93% 30.04 in 6.0 mi SSE 6.9 mph - 0.05 in   Scattered Clouds
8:59 PM 69.8 °F - 66.2 °F 88% 30.03 in 1.2 mi SE 6.9 mph - 0.15 in Rain Heavy Rain
9:02 PM 68.0 °F - 66.2 °F 94% 30.00 in 0.5 mi ESE 12.7 mph 18.4 mph 0.30 in Fog , Rain Heavy Rain
9:10 PM 69.8 °F - 64.4 °F 83% 30.00 in 1.0 mi Calm Calm - 0.31 in   Mostly Cloudy
9:12 PM 69.8 °F - 64.4 °F 83% 30.00 in 2.0 mi North 10.4 mph 21.9 mph 0.31 in   Haze
9:19 PM 69.8 °F - 66.2 °F 88% 30.00 in 10.0 mi ENE 9.2 mph - 0.31 in   Mostly Cloudy
9:48 PM 68.0 °F - 66.2 °F 94% 30.02 in 1.5 mi NNE 8.1 mph - 0.45 in Rain Light Rain
9:56 PM 68.0 °F - 66.9 °F 96% 30.05 in 1.0 mi Calm Calm - 0.47 in Rain Light Rain
9:58 PM 68.0 °F - 66.2 °F 94% 30.02 in 1.5 mi Calm Calm - 0.00 in Rain Light Rain
10:00 PM 68.0 °F - 66.2 °F 94% 30.02 in 3.0 mi Calm Calm - 0.00 in Rain Light Rain
10:56 PM 66.9 °F - 66.9 °F 100% 30.05 in 5.0 mi Calm Calm - 0.00 in   Clear
11:56 PM 68.0 °F - 66.9 °F 96% 30.05 in 10.0 mi SE 4.6 mph - N/A   Clear